Accueil
METAR-TAF:

METAR-TAF

Aéroports :

Gilmer Municipal Airport (Fox Stephens Field)

Gilmer, Texas, États-Unis

latitude: 32-41-56N, longitude: 094-56-55W, altitude: 127 m

Observation

Le bulletin a été fait il y a 12 minutes, à 10:55 UTC
Vent 6 kt de est
Température 23°C
Humidité 100%
Pression 1014 hPa
Visibilité: 16.1 km
Ciel couvert à une hauteur de 300 ft
pluie faible

METAR: KJXI 221055Z AUTO 08006KT 10SM -RA OVC003 23/23 A2995 RMK AO2 P0009 T02270225

Heure: 06:07 (11:07 UTC)


TAF: absent

Observations et prévisions météorologiques de plus de 4000 aéroports (messages METAR et TAF).

Les stations disponibles sont représentées par des disques jaunes et rouges sur la carte.

Passer la souris dessus pour voir le nom de la station.

Cliquer dessus pour voir les observations et prévisions météorologiques.

Pour changer de carte: cliquez sur les boutons verts avec une croix noire pour zoomer, sur le bouton vert avec un tiret pour effectuer un zoom arrière, ou sur les flèches vertes pour les cartes adjacentes.


METAR-TAF: